This demonstration page uses our WeatherBlox Daily Observations layout. Learn more.

Left ArrowRight Arrow

44.31136, -96.79839

Hourly Observations for August 18, 2017

Temp ( °F °C ) Dew Point ( °F °C ) Humidity (%) Winds ( mph kmh ) Pressure ( in mb ) Visibility ( mi km ) Precip ( " mm )
12:07 am 00:07 Cloudy with Light Rain 66 19 61 16 83 83 W 10 17 29.91 1013 N/A 0.00 0.03
12:56 am 00:56 Cloudy with Light Rain 63 17.2 57 13.9 81 81 SW 8 13 29.96 1014 N/A 0.00 0.03
1:56 am 01:56 Cloudy with Light Rain 63 17.2 57 13.9 81 81 S 10 17 29.91 1013 N/A 0.02 0.51
2:56 am 02:56 Mostly Cloudy 63 17.2 55 12.8 76 76 S 14 22 29.89 1012 N/A 0.00 0.03
3:56 am 03:56 Cloudy with Light Rain 63 17.2 56 13.3 78 78 SSW 7 11 29.91 1013 N/A 0.00 0.03
4:56 am 04:56 Cloudy with Rain 61 16.1 57 13.9 87 87 SSE 8 13 29.93 1014 N/A 0.04 1.02
5:56 am 05:56 Cloudy with Light Rain 60 15.6 58 14.4 93 93 Calm 29.95 1014 N/A 0.15 3.81
6:56 am 06:56 Mostly Cloudy with Light Rain 60 15.6 58 14.4 93 93 ESE 15 24 29.89 1012 N/A 0.01 0.25
7:56 am 07:56 Sunny 60 15.6 59 15 96 96 SW 5 7 29.96 1015 N/A 0.00 0.03
8:56 am 08:56 Sunny 62 16.7 59 15 90 90 Calm 29.97 1015 N/A 0.00 0.00
9:56 am 09:56 Sunny 66 18.9 60 15.6 81 81 S 6 9 29.96 1015 N/A 0.00 0.00
10:56 am 10:56 Sunny 70 21.1 61 16.1 73 73 S 7 11 29.96 1014 N/A 0.00 0.00
11:56 am 11:56 Sunny 73 22.8 60 15.6 64 64 S 12 19 29.94 1014 N/A 0.00 0.00
12:56 pm 12:56 Sunny 75 23.9 60 15.6 60 60 SSW 12 19 29.93 1014 N/A 0.00 0.00
1:56 pm 13:56 Mostly Sunny 76 24.4 62 16.7 62 62 S 13 20 29.93 1013 N/A 0.00 0.00
2:56 pm 14:56 Partly Cloudy 77 25 63 17.2 62 62 SW 15 24 29.90 1013 N/A 0.00 0.00
3:56 pm 15:56 Mostly Cloudy 78 25.6 62 16.7 58 58 WSW 16 26 29.88 1012 N/A 0.00 0.00
4:56 pm 16:56 Partly Cloudy 76 24.4 63 17.2 64 64 W 17 28 29.88 1012 N/A 0.00 0.00
5:56 pm 17:56 Partly Cloudy 73 22.8 61 16.1 66 66 NW 18 30 29.90 1013 N/A 0.00 0.00
6:56 pm 18:56 Mostly Sunny 71 21.7 60 15.6 68 68 NNW 15 24 29.93 1014 N/A 0.00 0.00
7:56 pm 19:56 Sunny 66 18.9 59 15 78 78 N 13 20 29.95 1014 N/A 0.00 0.00
8:56 pm 20:56 Clear 63 17.2 59 15 87 87 N 6 9 29.97 1015 N/A 0.00 0.00
9:56 pm 21:56 Clear 61 16.1 59 15 93 93 NW 7 11 29.99 1016 N/A 0.00 0.00
10:56 pm 22:56 Clear 60 15.6 58 14.4 93 93 NW 5 7 30.00 1016 N/A 0.00 0.00
11:56 pm 23:56 Clear 60 15.6 59 15 96 96 N 3 6 29.99 1016 N/A 0.00 0.00

Powered by AerisWeather